This is the latest recevied weather packets stored in our database for station/object YO2MAS-13. If no packets are shown the sender has not sent any weather packets the latest 10 day(s).
| Time | Temp. | Humidity | Pressure | Rain* | Wind** | Luminosity | Snow |
|---|---|---|---|---|---|---|---|
| 1777242603 | 11.11° C | 56% | 1026.5 hPa | - | - | - | - |
| 1777241703 | 11.67° C | 58% | 1026.4 hPa | - | - | - | - |
| 1777240803 | 11.11° C | 53% | 1026.3 hPa | - | - | - | - |
| 1777239903 | 11.11° C | 53% | 1026.1 hPa | - | - | - | - |
| 1777239005 | 11.67° C | 51% | 1026 hPa | - | - | - | - |
| 1777238155 | 12.22° C | 49% | 1025.9 hPa | - | - | - | - |
| 1777238103 | 12.22° C | 49% | 1025.9 hPa | - | - | - | - |
| 1777237203 | 12.22° C | 51% | 1025.8 hPa | - | - | - | - |
| 1777236303 | 12.22° C | 54% | 1025.5 hPa | - | - | - | - |
| 1777236047 | 12.22° C | 49% | 1025.1 hPa | - | - | - | - |
| 1777235403 | 12.22° C | 49% | 1025.1 hPa | - | - | - | - |
| 1777234503 | 12.78° C | 46% | 1025 hPa | - | - | - | - |
| 1777233603 | 13.89° C | 48% | 1024.7 hPa | - | - | - | - |
| 1777232703 | 14.44° C | 52% | 1024.2 hPa | - | - | - | - |
| 1777231840 | 14.44° C | 46% | 1024.1 hPa | - | - | - | - |
| 1777231803 | 14.44° C | 46% | 1024.1 hPa | - | - | - | - |
| 1777230903 | 14.44° C | 49% | 1023.9 hPa | - | - | - | - |
| 1777230003 | 14.44° C | 49% | 1023.6 hPa | - | - | - | - |
| 1777229103 | 15° C | 48% | 1023.3 hPa | - | - | - | - |
| 1777228203 | 14.44° C | 44% | 1023.2 hPa | - | - | - | - |
| 1777227303 | 15° C | 47% | 1022.6 hPa | - | - | - | - |
| 1777226403 | 15.56° C | 43% | 1022.3 hPa | - | - | - | - |
| 1777225503 | 16.11° C | 42% | 1021.9 hPa | - | - | - | - |
| 1777224605 | 17.22° C | 41% | 1021.5 hPa | - | - | - | - |
| 1777223703 | 18.33° C | 39% | 1021.2 hPa | - | - | - | - |
* Rain since midnight (hover to see other rain measurements)
** Current wind speed in m/s (hover to see current wind gust speed)